FW1564 Weather Reports


Display with metric or nautical units.
time (UTC)temp
F
wind
direction
speed
MPH
gust
MPH
rain 1hr
in
rain 24hr
in
rain mn
in
humidity
%
barometer
mb
20210126045942 55 333 6.0 10.0 0.00 0.00 0.00 87 1026.0
20210126044937 55 333 8.0 10.0 0.00 0.00 0.00 86 1026.1
20210126043926 55 343 6.0 10.0 0.00 0.00 0.00 86 1026.1
20210126042915 55 334 7.0 13.0 0.00 0.00 0.00 86 1026.2
20210126041906 56 343 8.0 13.0 0.00 0.00 0.00 87 1026.3
20210126040855 56 326 8.0 10.0 0.00 0.00 0.00 87 1026.3
20210126035847 56 331 6.0 10.0 0.00 0.00 0.00 86 1026.3
20210126034839 56 311 5.0 10.0 0.00 0.00 0.00 85 1026.2
20210126033837 56 329 4.0 8.0 0.00 0.00 0.00 87 1026.4
20210126032829 55 321 6.0 8.0 0.00 0.00 0.00 85 1026.3
20210126031824 55 337 6.0 10.0 0.00 0.00 0.00 85 1026.3
20210126030801 55 347 6.0 10.0 0.00 0.00 0.00 86 1026.3
20210126025752 55 333 5.0 10.0 0.00 0.00 0.00 85 1026.3
20210126024754 55 338 4.0 8.0 0.00 0.00 0.00 86 1026.4
20210126023736 55 320 5.0 10.0 0.00 0.00 0.00 86 1026.4
20210126022725 55 321 5.0 10.0 0.00 0.00 0.00 86 1026.4
20210126021716 55 341 6.0 8.0 0.00 0.00 0.00 87 1026.3
20210126020717 55 317 5.0 13.0 0.00 0.00 0.00 86 1026.3
20210126015658 55 342 4.0 8.0 0.00 0.00 0.00 87 1026.4
20210126014650 55 325 4.0 8.0 0.00 0.00 0.00 85 1026.4
20210126013640 55 331 5.0 10.0 0.00 0.00 0.00 85 1026.5
20210126012632 55 349 5.0 8.0 0.00 0.00 0.00 85 1026.4
20210126011625 55 335 4.0 8.0 0.00 0.00 0.00 85 1026.4
20210126010627 55 335 4.0 10.0 0.00 0.00 0.00 85 1026.5
20210126005602 55 319 6.0 8.0 0.00 0.00 0.00 86 1026.5
20210126004554 55 338 4.0 8.0 0.00 0.00 0.00 86 1026.5
20210126003550 55 333 5.0 8.0 0.00 0.00 0.00 86 1026.5
20210126002536 55 345 4.0 8.0 0.00 0.00 0.00 87 1026.5
20210126001531 56 342 3.0 8.0 0.00 0.00 0.00 86 1026.6
20210126000546 56 337 5.0 10.0 0.00 0.00 0.00 86 1026.7
20210125235517 56 335 6.0 10.0 0.00 0.00 0.00 85 1026.6
20210125234458 56 335 6.0 13.0 0.00 0.00 0.00 86 1026.5
20210125233449 56 337 7.0 13.0 0.00 0.00 0.00 85 1026.4
20210125232441 57 334 5.0 10.0 0.00 0.00 0.00 85 1026.6
20210125231455 57 330 5.0 10.0 0.00 0.00 0.00 85 1026.4
20210125230427 57 322 6.0 8.0 0.00 0.00 0.00 84 1026.4
20210125225415 57 335 5.0 8.0 0.00 0.00 0.00 84 1026.6
20210125224406 57 332 4.0 5.0 0.00 0.00 0.00 85 1026.5
20210125223358 57 325 0.0 0.0 0.00 0.00 0.00 87 1026.7
20210125222346 57 287 0.0 5.0 0.00 0.00 0.00 86 1026.7
20210125221338 57 331 2.0 5.0 0.00 0.00 0.00 86 1026.6
20210125220328 56 324 2.0 8.0 0.00 0.00 0.00 86 1026.6
20210125215325 56 326 2.0 5.0 0.00 0.00 0.00 92 1026.4
20210125214312 57 310 0.0 0.0 0.00 0.00 0.00 96 1026.4
20210125213303 57 312 0.0 0.0 0.00 0.00 0.00 97 1026.3
20210125212255 58 216 0.0 0.0 0.00 0.00 0.00 97 1026.2
20210125211244 58 221 0.0 0.0 0.00 0.00 0.00 97 1026.2
20210125210239 58 205 0.0 0.0 0.00 0.00 0.00 97 1026.1
20210125205241 58 205 0.0 0.0 0.00 0.00 0.00 97 1026.1
20210125204217 58 204 0.0 0.0 0.00 0.00 0.00 97 1026.0
20210125203207 58 214 0.0 0.0 0.00 0.00 0.00 97 1025.9
20210125202157 58 214 0.0 5.0 0.00 0.00 0.00 97 1025.8
20210125201155 58 200 0.0 2.0 0.00 0.00 0.00 96 1025.9
20210125200139 58 180 0.0 0.0 0.00 0.00 0.00 96 1025.8
20210125195131 58 197 0.0 0.0 0.00 0.00 0.00 96 1025.7
20210125194124 58 173 0.0 0.0 0.00 0.00 0.00 96 1025.5
20210125193119 58 183 0.0 0.0 0.00 0.00 0.00 96 1025.4
20210125192106 58 183 0.0 0.0 0.00 0.00 0.00 96 1025.5
20210125191058 58 208 0.0 0.0 0.00 0.00 0.00 95 1025.3
20210125190103 58 209 0.0 0.0 0.00 0.00 0.00 95 1025.2
20210125185039 58 192 0.0 0.0 0.00 0.00 0.00 95 1024.9
20210125184028 58 182 0.0 0.0 0.00 0.00 0.00 94 1024.7
20210125183028 58 194 0.0 0.0 0.00 0.00 0.00 94 1024.6
20210125182719 58 192 0.0 0.0 0.00 0.00 0.00 94 1024.7
20210125181716 58 199 0.0 2.0 0.00 0.00 0.00 93 1024.5
20210125180707 58 201 1.0 2.0 0.00 0.00 0.00 92 1024.5
20210125175654 58 183 0.0 0.0 0.00 0.00 0.00 92 1024.4
20210125174651 58 202 0.0 2.0 0.00 0.00 0.00 92 1024.6
20210125173647 58 190 0.0 5.0 0.00 0.00 0.00 92 1024.5
20210125172634 59 217 0.0 0.0 0.00 0.00 0.00 92 1024.4
20210125172157 59 205 0.0 5.0 0.00 0.00 0.00 92 1024.3
20210125171156 59 198 0.0 5.0 0.00 0.00 0.00 92 1024.2
20210125170129 59 171 0.0 2.0 0.00 0.00 0.00 91 1024.4
20210125165115 59 204 2.0 5.0 0.00 0.00 0.00 91 1024.4
20210125164130 59 187 0.0 0.0 0.00 0.00 0.00 89 1024.3
20210125163556 59 211 2.0 5.0 0.00 0.00 0.00 89 1024.2
20210125162544 59 191 0.0 0.0 0.00 0.00 0.00 89 1024.1
20210125162115 59 162 1.0 2.0 0.00 0.00 0.00 90 1024.1
20210125161111 59 167 1.0 5.0 0.00 0.00 0.00 90 1024.1
20210125160115 59 178 1.0 0.0 0.00 0.00 0.00 92 1024.1
20210125155712 59 199 2.0 5.0 0.00 0.00 0.00 92 1024.1
20210125154652 59 200 0.0 5.0 0.00 0.00 0.00 93 1024.0
20210125153639 59 190 4.0 5.0 0.00 0.00 0.00 93 1023.9
20210125152631 59 147 2.0 8.0 0.00 0.00 0.00 93 1023.8
20210125151622 59 174 1.0 5.0 0.00 0.00 0.00 93 1023.7
20210125150624 60 200 0.0 0.0 0.00 0.00 0.00 92 1023.7
20210125145631 60 291 1.0 8.0 0.00 0.00 0.00 91 1023.9
20210125144612 60 195 4.0 8.0 0.00 0.00 0.00 89 1023.8
20210125143557 60 190 2.0 5.0 0.00 0.00 0.00 86 1023.9
20210125142548 60 155 4.0 5.0 0.00 0.00 0.00 87 1023.9
20210125141539 59 167 2.0 5.0 0.00 0.00 0.00 87 1024.0
20210125140536 60 203 0.0 8.0 0.00 0.00 0.00 89 1024.1
20210125135522 60 175 3.0 8.0 0.00 0.00 0.00 90 1024.3
20210125134525 60 210 5.0 8.0 0.00 0.00 0.00 90 1024.4
20210125133516 60 198 0.0 8.0 0.00 0.00 0.00 88 1024.4
20210125132454 60 164 2.0 8.0 0.00 0.00 0.00 87 1024.6
20210125131500 60 194 1.0 8.0 0.00 0.00 0.00 86 1024.7
20210125130442 60 119 2.0 8.0 0.00 0.00 0.00 86 1025.1
20210125125442 60 323 2.0 5.0 0.00 0.00 0.00 85 1025.1
20210125124418 61 163 4.0 8.0 0.00 0.00 0.00 84 1025.1
20210125123417 61 204 2.0 8.0 0.00 0.00 0.00 84 1025.3
20210125122358 62 220 3.0 8.0 0.00 0.00 0.00 82 1025.4
20210125121349 63 197 4.0 8.0 0.00 0.00 0.00 81 1025.4
20210125120407 64 124 7.0 10.0 0.00 0.00 0.00 79 1025.5
20210125115333 64 163 7.0 10.0 0.00 0.00 0.00 74 1025.4
20210125114322 64 212 2.0 8.0 0.00 0.00 0.00 73 1025.4
20210125113316 64 127 5.0 13.0 0.00 0.00 0.00 75 1025.2
20210125112306 64 197 0.0 8.0 0.00 0.00 0.00 75 1025.1
20210125111257 64 180 6.0 10.0 0.00 0.00 0.00 72 1024.9
20210125110245 64 143 0.0 8.0 0.00 0.00 0.00 73 1024.9
20210125105246 64 94 4.0 8.0 0.00 0.00 0.00 73 1025.0
20210125104227 63 162 5.0 8.0 0.00 0.00 0.00 75 1024.9
20210125103232 62 211 0.0 5.0 0.00 0.00 0.00 73 1024.5
20210125102211 61 171 2.0 5.0 0.00 0.00 0.00 72 1024.3
20210125101201 59 185 0.0 0.0 0.00 0.00 0.00 76 1024.1
20210125100153 58 333 0.0 5.0 0.00 0.00 0.00 80 1024.1
20210125095146 57 347 4.0 5.0 0.00 0.00 0.00 81 1023.9
20210125094133 56 346 3.0 8.0 0.00 0.00 0.00 80 1023.8
20210125093122 56 342 4.0 8.0 0.00 0.00 0.00 80 1023.7
20210125092120 55 342 4.0 8.0 0.00 0.00 0.00 78 1023.5
20210125091107 55 339 6.0 10.0 0.00 0.00 0.00 78 1023.4
20210125090120 55 335 5.0 8.0 0.00 0.00 0.00 77 1023.4
20210125085047 55 332 5.0 10.0 0.00 0.00 0.00 76 1023.2
20210125084040 54 344 6.0 10.0 0.00 0.00 0.00 77 1023.3
20210125083044 53 342 6.0 10.0 0.00 0.00 0.00 78 1023.3
20210125082023 53 334 6.0 10.0 0.00 0.00 0.00 82 1023.4
20210125081020 53 334 5.0 10.0 0.00 0.00 0.00 81 1023.2
20210125080020 53 333 6.0 8.0 0.00 0.00 0.00 82 1023.3
20210125074956 53 336 6.0 10.0 0.00 0.00 0.00 81 1023.3
20210125073948 53 334 4.0 8.0 0.00 0.00 0.00 81 1023.1
20210125072934 53 322 4.0 8.0 0.00 0.00 0.00 81 1023.0
20210125071935 53 324 7.0 8.0 0.00 0.00 0.00 80 1022.9
20210125070915 54 350 4.0 10.0 0.00 0.00 0.00 80 1022.9
20210125065918 53 332 5.0 10.0 0.00 0.00 0.00 81 1022.9
20210125064900 54 328 6.0 10.0 0.00 0.00 0.00 79 1022.8
20210125063853 53 323 5.0 10.0 0.00 0.00 0.00 81 1022.5
20210125062839 53 331 5.0 10.0 0.00 0.00 0.00 83 1022.4
20210125061831 53 338 5.0 10.0 0.00 0.00 0.00 83 1022.5
20210125060846 53 343 6.0 8.0 0.00 0.00 0.00 79 1022.5
20210125055814 53 333 4.0 8.0 0.00 0.00 0.00 78 1022.4
20210125054805 53 334 4.0 8.0 0.00 0.00 0.00 79 1022.3
20210125053812 53 323 4.0 8.0 0.00 0.00 0.00 79 1022.2
20210125052752 53 320 2.0 8.0 0.00 0.00 0.00 76 1022.3
20210125051737 53 337 6.0 8.0 0.00 0.00 0.00 76 1022.3
20210125050726 53 339 4.0 10.0 0.00 0.00 0.00 74 1022.1